SCP
0 0 0 0 0 0 0 0 0 0 0 0 0 0 0 0 0 0 0 0 0 0 0 0 0 0 0 0 0 0 0 0 0 0 0 0 0 0
0 0 0 0 0 0 0 0 0 0 0 0 0 0 0 0 0 0 0 0 0 0 0 0 0 0 0 0 0 0 0 0 0 0 0 0 0 0
0 0 0 0 0 0 0 0 0 0 0 0 0 0 0 0 0 0 0 0 0 0 0 0 0 0 0 0 0 0 0 0 0 0 0 0 0 0
0 0 0 0 0 0 0 0 0 0 0 0 0 0 0 0 0 0 0 0 0 0 0 0 0 0 0 0 0 0 0 0 0 0 0 0 0 0
0 0 0 0 0 0 0 0 0 0 0 0 0 0 0 0 0 0 0 0 0 0 0 0 0 0 0 0 0 0 0 0 0 0 0 0 0 0
0 0 0 0 0 0 0 0 0 0 0 0 0 0 0 0 0 0 0 0 0 0 0 0 0 0 0 0 0 0 0 0 0 0 0 0 0 0
0 0 0 0 0 0 0 0 0 0 0 0 0 0 0 0 0 0 0 0 0 0 0 0 0 0 0 0 0 0 0 0 0 0 0 0 0 0
0 0 0 0 0 0 0 0 0 0 0 0 0 0 0 0 0 0 0 0 0 0 0 0 0 0 0 0 0 0 0 0 0 0 0 0 0 0
0 0 0 0 0 0 0 0 0 0 0 0 0 0 0 0 0 0 0 0 0 0 0 0 0 0 0 0 0 0 0 0 0 0 0 0 0 0
0 0 0 0 0 0 0 0 0 0 0 0 0 0 0 0 0 0 0 0 0 0 0 0 0 0 0 0 0 0 0 0 0 0 0 0 0 0
0 0 0 0 0 0 0 0 0 0 0 0 0 0 0 0 0 0 0 0 0 0 0 0 0 0 0 0 0 0 0 0 0 0 0 0 0 0
0 0 0 0 0 0 0 0 0 0 0 0 0 0 0 0 0 0 0 0 0 0 0 0 0 0 0 0 0 0 0 0 0 0 0 0 0 0
0 0 0 0 0 0 0 0 0 0 0 0 0 0 0 0 0 0 0 0 0 0 0 0 0 0 0 0 0 0 0 0 0 0 0 0 0 0
0 0 0 0 0 0 0 0 0 0 0 0 0 0 0 0 0 0 0 0 0 0 0 0 0 0 0 0 0 0 0 0 0 0 0 0 0 0
0 0 0 0 0 0 0 0 0 0 0 0 0 0 0 0 0 0 0 0 0 0 0 0 0 0 0 0 0 0 0 0 0 0 0 0 0 0
0 0 0 0 0 0 0 0 0 0 0 0 0 0 0 0 0 0 0 0 0 0 0 0 0 0 0 0 0 0 0 0 0 0 0 0 0 0
0 0 0 0 0 0 0 0 0 0 0 0 0 0 0 0 0 0 0 0 0 0 0 0 0 0 0 0 0 0 0 0 0 0 0 0 0 0
0 0 0 0 0 0 0 0 0 0 0 0 0 0 0 0 0 0 0 0 0 0 0 0 0 0 0 0 0 0 0 0 0 0 0 0 0 0
0 0 0 0 0 0 0 0 0 0 0 0 0 0 0 0 0 0 0 0 0 0 0 0 0 0 0 0 0 0 0 0 0 0 0 0 0 0
0 0 0 0 0 0 0 0 0 0 0 0 0 0 0 0 0 0 0 0 0 0 0 0 0 0 0 0 0 0 0 0 0 0 0 0 0 0
0 0 0 0 0 0 0 0 0 0 0 0 0 0 0 0 0 0 0 0 0 0 0 0 0 0 0 0 0 0 0 0 0 0 0 0 0 0
0 0 0 0 0 0 0 0 0 0 0 0 0 0 0 0 0 0 0 0 0 0 0 0 0 0 0 0 0 0 0 0 0 0 0 0 0 0
0 0 0 0 0 0 0 0 0 0 0 0 0 0 0 0 0 0 0 0 0 0 0 0 0 0 0 0 0 0 0 0 0 0 0 0 0 0
Wind_Speed
6 6 4 4 4 3 3 2 2 3 3 2 1 1 1 1 1 2 2 5 6 8 9 9 9 10 11 11 12 12 12 13 13 14 14 15 15 16
3 5 4 3 3 3 3 3 2 2 3 3 2 2 2 4 4 3 4 8 8 10 10 10 10 11 11 12 12 12 13 12 13 13 14 15 15 16
5 5 5 4 4 3 4 3 3 3 3 4 3 3 3 3 3 3 5 5 4 7 8 9 11 11 12 12 12 12 12 12 13 13 14 15 15 16
5 5 5 4 4 4 4 3 3 3 3 4 4 4 4 4 3 4 5 5 4 8 7 9 11 11 12 12 11 11 11 11 12 13 13 14 15 15
4 4 4 5 5 4 4 4 4 4 3 3 4 3 3 4 4 5 6 4 6 7 6 6 9 11 12 12 12 11 10 10 10 11 12 13 14 14
4 4 4 5 5 6 5 5 5 5 5 4 4 3 3 4 3 4 5 4 5 6 5 6 7 10 12 12 11 11 9 9 9 9 10 10 12 13
3 3 3 4 3 3 4 5 5 5 5 5 5 4 4 5 4 4 5 5 5 3 3 5 4 3 4 7 8 8 8 8 8 9 9 10 10 12
4 4 2 3 2 3 5 7 6 5 5 5 5 5 6 5 4 5 5 5 4 3 4 5 4 3 3 2 4 7 8 8 9 9 10 10 11 11
3 4 5 5 6 7 8 8 7 7 8 5 5 6 6 5 5 6 6 6 6 5 4 5 4 4 4 2 4 7 8 9 10 10 11 11 11 12
2 2 3 4 6 7 8 7 6 5 5 4 4 5 6 5 5 6 7 7 6 4 3 4 4 4 4 1 5 8 9 10 11 11 11 11 12 12
3 4 4 4 5 7 7 7 7 6 6 6 7 9 11 12 8 4 5 5 6 4 2 2 3 4 4 2 3 7 9 10 11 11 11 11 11 11
3 2 3 3 6 7 6 6 7 7 8 9 7 8 7 7 8 6 4 4 5 4 2 2 3 3 4 3 2 2 4 7 10 10 10 10 10 6
5 3 2 3 8 8 7 5 7 8 8 7 6 5 4 3 3 3 4 3 4 4 3 3 3 3 3 4 3 3 2 2 3 4 6 8 8 5
5 5 5 9 11 12 8 8 11 10 6 5 5 4 4 3 3 3 3 4 4 5 5 3 3 3 3 3 3 4 4 3 3 2 2 3 4 5
5 9 11 13 12 8 7 9 8 5 4 4 4 4 3 3 3 3 3 4 4 4 3 3 3 3 3 3 4 4 3 3 3 3 3 2 2 3
7 10 12 11 8 8 7 5 3 3 4 4 4 4 4 3 3 3 3 3 3 3 3 2 2 2 2 4 3 3 3 3 3 3 2 2 3 3
9 7 5 4 3 2 3 3 3 3 3 4 4 4 4 4 3 3 3 3 2 3 3 2 1 1 1 2 3 4 4 3 3 3 2 2 3 3
7 5 4 4 5 5 4 4 4 4 4 4 4 4 4 4 4 3 3 3 3 3 2 2 2 1 0 1 1 4 4 3 3 3 3 2 2 3
4 3 4 4 5 5 4 5 5 5 4 4 4 5 5 4 4 3 3 3 3 2 2 2 2 2 3 3 1 1 3 4 4 3 2 2 2 2
2 3 4 4 4 5 5 5 5 5 5 5 5 5 5 5 4 4 3 3 3 2 2 2 1 1 1 1 1 1 1 3 3 4 3 1 1 2
4 4 4 4 4 5 5 5 5 5 6 5 5 6 5 5 5 4 4 5 4 3 3 2 1 1 1 0 1 0 1 0 1 2 4 3 2 2
5 5 5 4 4 5 5 5 5 5 6 6 6 7 6 5 5 5 4 4 4 3 3 3 2 1 0 1 1 1 2 3 2 0 1 1 1 2
4 5 5 5 5 5 6 7 8 7 7 7 8 8 7 6 4 4 4 4 4 5 4 3 3 2 2 1 1 1 1 2 3 3 2 3 3 3
Wind_Direction
43 41 26 18 14 11 11 1 350 338 339 3 7 27 33 50 210 287 302 288 261 249 254 255 263 272 278 282 284 285 285 287 289 290 291 291 290 290
39 45 33 19 6 360 355 352 356 345 340 340 352 13 6 336 332 330 303 294 278 261 258 254 255 259 266 275 281 283 284 287 288 288 289 290 290 291
27 28 23 23 15 358 359 359 5 4 343 332 338 336 338 327 323 310 292 282 280 279 266 250 248 252 259 267 273 277 281 285 288 289 290 290 291 292
31 18 10 15 12 9 354 354 354 343 339 327 319 320 323 318 316 303 307 315 314 294 271 251 248 251 255 260 264 267 270 274 280 285 287 289 290 291
26 14 10 17 15 4 343 356 346 345 324 311 307 314 314 325 331 318 314 313 309 310 296 273 257 257 257 256 259 262 263 264 269 275 281 285 288 291
22 15 23 31 24 356 347 3 350 339 331 321 318 320 319 334 336 323 318 317 312 313 317 302 279 266 258 257 258 260 259 261 263 267 273 278 282 286
10 12 32 67 50 349 355 348 340 334 327 328 324 327 335 340 335 323 320 315 306 306 313 306 300 287 273 256 252 250 250 254 260 265 270 273 275 278
8 1 3 101 3 331 315 304 295 305 321 321 320 331 329 331 330 324 322 324 317 317 321 307 304 300 287 258 226 226 236 247 257 264 269 271 275 278
3 358 1 33 28 2 338 318 298 271 254 271 297 306 312 323 326 321 318 313 300 296 304 299 303 302 299 291 208 225 238 249 257 264 269 274 277 280
355 8 15 41 31 358 332 329 323 319 286 258 273 287 300 308 307 299 295 295 290 288 298 293 303 307 306 259 226 236 246 255 262 267 272 276 280 284
1 29 19 35 25 353 332 331 331 332 334 318 283 278 282 282 277 289 297 308 313 313 328 300 306 311 298 274 242 235 250 259 267 271 273 277 284 292
357 60 75 10 345 341 331 326 324 329 329 317 303 292 280 272 258 238 265 297 310 311 333 323 312 326 315 310 313 278 259 265 269 272 273 276 286 296
344 354 56 343 329 325 315 293 301 313 306 300 303 307 302 287 271 242 242 260 287 293 304 327 310 315 298 302 309 319 317 303 289 279 274 278 281 282
331 346 346 326 320 313 304 294 307 311 296 306 313 314 314 316 310 302 283 267 254 262 277 288 278 293 305 310 308 319 324 324 334 334 329 318 300 299
322 323 312 305 306 301 289 297 302 296 307 318 318 315 313 312 308 304 302 293 286 280 278 266 268 290 307 306 308 316 318 327 345 346 349 5 1 355
344 319 308 298 287 285 298 299 289 305 317 313 317 318 317 321 322 321 321 320 320 312 303 291 274 285 316 321 321 327 337 334 334 340 349 18 28 31
326 307 313 327 336 335 336 334 328 333 334 331 333 330 328 331 328 321 316 321 327 322 327 324 308 197 131 353 342 342 342 339 335 339 350 25 41 39
320 316 336 350 360 1 358 352 346 347 342 339 337 335 332 330 330 327 327 330 335 334 337 336 349 353 295 97 21 341 340 339 339 351 3 25 30 39
303 324 353 360 357 354 354 354 351 347 343 343 340 337 333 330 329 329 341 339 339 339 335 347 16 15 12 1 335 0 341 338 347 359 6 26 37 36
348 358 2 0 357 355 355 355 348 346 348 344 345 342 340 338 338 337 341 345 336 343 348 348 2 31 22 313 310 2 9 356 350 350 349 19 71 96
8 1 0 1 359 352 350 352 348 350 356 352 351 344 340 338 340 342 345 351 346 345 345 333 311 232 232 272 335 282 156 79 4 334 337 352 17 24
8 358 353 359 0 353 353 353 352 357 2 359 349 339 335 335 338 341 349 353 352 346 344 335 325 299 274 355 319 255 214 196 196 200 24 356 357 17
13 354 347 4 7 358 357 355 2 6 4 354 343 333 330 332 335 342 346 359 360 353 345 338 337 342 355 7 341 304 260 209 195 203 213 213 214 222